Погода в Сарыгёле

Турция     38°14′12″N   28°41′57″E
темп.,
°C
ветер,
м/с
пор.,
м/с
влажн.,
%
обл.,
%
осадки,
мм/ч
давл.,
гПа
погр.,
м
27 июля, вт
вт2700:00+23ссз22480 0.0 101516
03:00+20ссз22570 0.0 101611
06:00+18с11630 0.0 101611
09:00+24св23430 0.0 1016656
12:00+32св68230 0.0 10152233
15:00+36ссв78130 0.0 10123044
18:00+34ссв88170 0.0 10122781
21:00+28ссв612280 0.0 1013230
28 июля, ср
ср2800:00+23св11480 0.0 101411
03:00+21св11540 0.0 101511
06:00+20всв12580 0.0 101513
09:00+28всв69280 0.0 10141219
12:00+33всв910150 0.0 10122001
15:00+37всв910110 0.0 10102571
18:00+36всв99110 0.0 10092797
21:00+28всв33220 0.0 101019
29 июля, чт
чт2900:00+23ссв12370 0.0 101111
03:00+21ссз11450 0.0 101111
06:00+20всв11450 0.0 101211
09:00+28всв59240 0.0 10111000
12:00+34св810150 0.0 10091946
15:00+37св67110 0.0 10072852
18:00+37св88110 0.0 10053231
21:00+28св44230 0.0 100743
30 июля, пт
пт3000:00+23с11330 0.0 100911
03:00+21ссз11380 0.0 100911
06:00+19ссз11420 0.0 101011
09:00+27с12260 0.0 1009456
12:00+34ссв46160 0.0 10072047
15:00+39ссв67100 0.0 10043333
18:00+37ссв118120 0.0 10042665
21:00+31ссв915210 0.0 1006359
31 июля, сб
сб3100:00+24ссз11350 0.0 100811
03:00+21ссз11390 0.0 100811
06:00+20ссв11440 0.0 100811
09:00+27ссз12270 0.0 1008435
12:00+34с35160 0.0 10072089
15:00+38с55100 0.0 10043075
18:00+38с6690 0.0 10033437
21:00+29с33170 0.0 100516